                ,  0.945,  1.145,  1.345,  1.545,  1.745,  1.945,  2.145,  2.345,  2.545,  2.745,  2.945,  3.145,  3.345,  3.545,  3.745,  3.945,  4.145,  4.345,  4.545,  4.745,  4.945,  5.145,  5.345,  5.545,  5.745,  5.945,  6.145,  6.345,  6.545,  6.745,  6.945,  7.145,  7.345,  7.545,  7.745,  7.945,  8.145,  8.345,  8.545,  8.745,  8.945,  9.145,  9.345,  9.545,  9.745,  9.945
2000/06/12 00:00,  999.0,  999.0,  999.0,  999.0,  999.0,  999.0,  999.0,  999.0,  999.0,  999.0,  999.0,  999.0,  999.0,  999.0,  999.0,  999.0,  999.0,  999.0,  999.0,  999.0,  999.0,  999.0,  999.0,  999.0,  999.0,  999.0,  999.0,  999.0,  999.0,  999.0,  999.0,  999.0,  999.0,  999.0,  999.0,  999.0,  999.0,  999.0,  999.0,  999.0,  999.0,  999.0,  999.0,  999.0,  999.0,  999.0
2000/06/12 00:10,  999.0,  999.0,   -0.2,   -0.1,   -0.1,    0.0,    0.1,   -0.0,    0.1,   -0.3,   -0.1,    0.2,  999.0,  999.0,  999.0,    0.3,    0.2,   -0.0,  999.0,    0.2,    0.0,    0.3,    0.2,    0.1,   -0.7,   -1.0,   -1.2,  999.0,   -1.5,   -1.5,   -1.3,   -1.3,   -1.3,   -1.2,   -1.2,   -1.3,   -1.2,   -1.0,   -1.0,   -1.0,   -0.8,   -0.8,   -0.7,  999.0,   -0.8,   -0.6
2000/06/12 00:20,    0.1,  999.0,   -0.0,  999.0,  999.0,    0.2,    0.0,    0.1,  999.0,  999.0,   -0.2,   -0.1,   -0.1,  999.0,  999.0,  999.0,  999.0,   -0.1,  999.0,    0.0,   -0.1,    0.3,    0.2,   -0.1,   -1.3,   -1.5,   -1.3,   -1.2,   -1.3,   -1.3,   -1.4,   -1.2,   -1.1,   -1.0,   -1.0,   -0.9,   -0.9,   -0.9,   -0.8,   -0.8,   -0.8,   -0.8,   -0.7,   -0.7,   -0.6,   -0.5
2000/06/12 00:30,   -0.1,  999.0,  999.0,   -0.0,    0.2,    0.3,  999.0,    0.1,  999.0,   -0.2,  999.0,   -0.1,   -0.1,   -0.2,  999.0,   -0.0,    0.3,  999.0,  999.0,    0.2,    0.4,    0.1,    0.1,   -0.7,   -1.6,   -2.0,   -1.6,   -1.5,   -1.4,   -1.3,   -1.3,   -1.1,   -1.1,   -1.2,   -1.2,   -1.2,   -1.2,   -1.1,   -1.1,   -1.1,   -1.0,   -0.8,   -0.7,   -0.7,   -0.7,   -0.5
2000/06/12 00:40,    0.2,  999.0,    0.1,    0.2,  999.0,  999.0,    0.1,   -0.1,   -0.0,   -0.0,   -0.1,    0.0,   -0.0,  999.0,   -0.3,   -0.1,    0.3,  999.0,    0.3,    0.1,    0.2,    0.1,   -0.7,   -2.1,   -1.6,   -1.3,   -1.1,   -1.2,   -1.3,   -1.4,   -1.3,   -1.3,   -1.2,   -1.2,   -1.1,   -1.1,   -1.1,   -1.0,   -1.0,   -0.9,   -0.8,   -0.9,   -0.8,   -0.9,   -0.9,   -0.7
2000/06/12 00:50,    0.1,    0.2,    0.1,  999.0,  999.0,    0.0,   -0.1,   -0.1,   -0.2,  999.0,  999.0,   -0.1,  999.0,   -0.3,   -0.1,   -0.1,   -0.3,  999.0,  999.0,   -0.1,   -0.0,   -0.1,  999.0,   -1.5,   -1.4,   -1.3,   -1.4,   -1.5,   -1.5,   -1.6,   -1.6,   -1.7,   -1.4,   -1.4,   -1.2,   -1.2,   -1.1,   -1.0,   -1.0,   -0.8,   -0.7,   -0.7,   -0.9,   -0.6,   -0.5,   -0.6
2000/06/12 01:00,    0.2,   -0.1,  999.0,  999.0,   -0.0,   -0.0,  999.0,  999.0,  999.0,  999.0,    0.2,  999.0,  999.0,   -0.0,  999.0,    0.2,    0.2,  999.0,    0.2,    0.1,   -0.3,   -1.0,   -1.2,   -1.1,   -1.0,   -1.0,   -1.2,   -1.2,   -1.2,   -1.3,   -1.3,   -1.4,   -1.2,   -1.2,   -1.2,   -1.1,   -1.1,   -1.0,   -1.0,   -1.0,   -0.9,   -1.0,   -0.8,   -0.8,   -0.7,   -0.4
2000/06/12 01:10,  999.0,    0.3,    0.0,  999.0,    0.0,   -0.1,    0.1,  999.0,  999.0,  999.0,  999.0,    0.1,  999.0,  999.0,  999.0,   -0.2,  999.0,  999.0,   -0.2,  999.0,   -0.8,   -1.4,   -1.2,   -1.2,   -1.2,   -1.2,   -1.2,   -1.3,   -1.2,   -1.2,   -1.3,   -1.2,   -1.2,   -1.3,   -1.3,   -1.2,   -1.2,   -1.1,   -1.1,   -1.0,   -1.0,   -0.8,   -0.9,   -0.9,   -0.7,   -0.6
2000/06/12 01:20,   -0.4,    0.2,  999.0,  999.0,   -0.1,   -0.1,  999.0,  999.0,  999.0,  999.0,  999.0,  999.0,   -0.0,  999.0,  999.0,   -0.5,  999.0,   -0.8,   -1.1,   -1.4,   -1.4,   -1.3,   -1.1,   -1.0,   -1.1,   -1.1,   -1.1,   -1.2,   -1.4,   -1.5,   -1.5,   -1.6,   -1.5,   -1.5,   -1.4,   -1.3,   -1.4,   -1.2,   -1.2,   -1.0,   -1.1,   -1.1,   -1.1,   -0.9,   -0.8,   -0.7
2000/06/12 01:30,  999.0,    0.1,  999.0,  999.0,   -0.1,  999.0,  999.0,  999.0,  999.0,  999.0,   -0.1,  999.0,   -0.1,   -0.2,   -0.6,   -0.7,   -1.0,   -1.4,   -1.4,   -1.3,   -1.4,   -1.3,   -1.3,   -1.2,   -1.1,   -1.1,   -1.1,   -1.2,   -1.2,   -1.2,   -1.2,   -1.1,   -1.1,   -1.2,   -1.1,   -1.1,   -1.0,   -1.0,   -1.0,   -0.8,   -0.8,   -0.7,   -0.7,   -0.6,   -0.5,   -0.3
2000/06/12 01:40,   -0.1,   -0.1,  999.0,  999.0,    0.0,    0.1,   -0.3,  999.0,  999.0,  999.0,  999.0,   -0.2,    0.6,    0.7,    0.3,   -0.9,   -1.5,   -1.1,   -1.3,   -1.4,   -1.2,   -1.1,   -1.7,   -1.6,   -1.2,   -1.2,   -1.2,   -1.2,   -1.2,   -1.1,   -1.1,   -1.1,   -1.0,   -1.0,   -1.0,   -1.0,   -0.8,   -0.8,   -0.7,   -0.8,   -0.7,   -0.6,   -0.5,   -0.4,   -0.4,   -0.4
2000/06/12 01:50,   -0.1,    0.0,   -0.0,  999.0,  999.0,  999.0,  999.0,   -0.1,   -0.1,   -0.0,    0.2,    0.1,    0.1,   -0.0,   -0.5,   -0.6,   -1.1,   -1.1,   -1.1,   -1.2,   -1.6,   -1.7,   -1.6,   -1.3,   -1.3,   -1.3,   -1.3,   -1.2,   -1.1,   -1.1,   -1.1,   -1.0,   -1.0,   -0.8,   -0.8,   -0.8,   -0.8,   -0.8,   -0.8,   -0.8,   -0.7,   -0.7,   -0.6,   -0.3,   -0.6,   -0.3
2000/06/12 02:00,    0.2,    0.1,  999.0,   -0.1,    0.0,    0.1,    0.1,  999.0,  999.0,  999.0,    0.1,  999.0,    0.0,    0.2,   -0.8,   -0.9,   -0.9,   -1.1,   -1.4,   -1.4,   -1.5,   -1.5,   -1.3,   -1.2,   -1.2,   -1.1,   -1.1,   -1.0,   -1.0,   -1.1,   -1.2,   -1.1,   -1.2,   -1.1,   -1.0,   -1.0,   -0.9,   -0.8,   -0.9,   -0.7,   -0.6,   -0.7,   -0.6,   -0.5,   -0.6,   -0.6
2000/06/12 02:10,    0.1,    0.1,    0.0,    0.0,  999.0,  999.0,  999.0,  999.0,  999.0,  999.0,  999.0,    0.1,   -0.3,   -0.4,   -1.1,   -1.3,   -1.3,   -1.0,   -1.3,   -1.5,   -1.6,   -1.4,   -1.2,   -1.0,   -1.0,   -1.0,   -1.1,   -1.0,   -1.2,   -1.2,   -1.1,   -1.0,   -1.1,   -1.0,   -0.9,   -0.9,   -0.9,   -0.8,   -0.8,   -0.6,   -0.7,   -0.6,   -0.6,   -0.6,   -0.6,   -0.6
2000/06/12 02:20,   -0.1,    0.0,   -0.0,    0.0,    0.0,    0.0,    0.0,   -0.2,   -0.2,   -0.1,   -0.1,  999.0,  999.0,   -1.0,   -0.5,   -1.3,   -1.4,   -1.4,   -1.5,   -1.4,   -1.4,   -1.3,   -1.3,   -1.3,   -1.3,   -1.3,   -1.3,   -1.2,   -1.4,   -1.3,   -1.2,   -1.2,   -1.0,   -1.0,   -0.9,   -0.9,   -0.9,   -0.9,   -0.9,   -0.9,   -0.8,   -0.8,   -0.6,   -0.6,   -0.6,   -0.4
2000/06/12 02:30,  999.0,  999.0,   -0.0,   -0.0,    0.0,    0.1,   -0.0,  999.0,  999.0,   -0.8,    0.2,    0.9,    0.5,   -0.5,   -0.7,   -0.8,   -1.2,   -1.3,   -1.3,   -1.4,   -1.4,   -1.3,   -1.2,   -1.1,   -1.1,   -1.2,   -1.2,   -1.1,   -1.2,   -1.1,   -1.1,   -1.0,   -1.0,   -1.0,   -1.0,   -0.9,   -0.9,   -0.9,   -0.8,   -0.7,   -0.7,  999.0,   -0.6,   -0.6,   -0.6,   -0.5
2000/06/12 02:40,  999.0,  999.0,    0.2,  999.0,   -0.0,   -0.1,  999.0,   -0.2,   -0.0,    0.2,    0.2,    0.4,    0.0,   -0.6,   -0.8,   -1.3,   -1.5,   -1.4,   -1.5,   -1.4,   -1.4,   -1.2,   -1.1,   -1.1,   -1.2,   -1.2,   -1.3,   -1.3,   -1.2,   -1.2,   -1.2,   -1.1,   -1.2,   -1.2,   -1.1,   -1.0,   -0.9,   -0.8,   -0.9,   -0.7,   -0.9,   -0.9,   -0.7,   -0.6,   -0.4,   -0.4
2000/06/12 02:50,    0.1,    0.0,    0.1,    0.0,    0.0,    0.1,    0.0,   -0.2,   -0.0,    0.0,   -0.1,   -0.1,    0.1,    0.2,    0.0,   -1.1,   -1.4,   -1.3,   -1.5,   -1.5,   -1.4,   -1.3,   -1.4,   -1.5,   -1.4,   -1.4,   -1.4,   -1.4,   -1.4,   -1.3,   -1.2,   -1.2,   -1.2,   -1.2,   -1.3,   -1.2,   -1.2,   -1.1,   -1.0,   -1.0,  999.0,   -1.3,   -1.1,   -0.9,   -0.8,   -0.8
2000/06/12 03:00,   -0.0,    0.2,  999.0,   -0.0,   -0.1,   -0.4,   -0.6,   -0.8,   -0.1,   -0.5,   -0.7,   -0.7,   -0.5,    0.1,    0.5,   -0.5,   -1.3,   -1.5,   -1.6,   -1.6,   -1.6,   -1.6,   -1.5,   -1.4,   -1.4,   -1.4,   -1.2,   -1.2,   -1.3,   -1.2,   -1.2,   -1.1,   -1.1,   -1.0,   -0.8,   -0.8,   -0.8,   -0.8,   -0.7,   -0.9,   -0.6,  999.0,   -0.4,   -0.6,   -0.4,   -0.6
2000/06/12 03:10,    0.2,    0.2,    0.1,    0.0,    0.0,  999.0,  999.0,    0.1,    0.2,    0.4,    0.3,    0.3,   -0.1,    0.1,    0.3,   -0.7,   -1.1,   -1.3,   -1.4,   -1.4,   -1.4,   -1.5,   -1.4,   -1.4,   -1.2,   -1.3,   -1.1,   -1.1,   -1.2,   -1.1,   -1.0,   -1.0,   -0.9,   -0.9,   -0.9,   -0.9,   -0.7,   -0.7,   -0.7,   -0.6,   -0.7,   -0.6,   -0.5,   -0.5,   -0.4,   -0.5
2000/06/12 03:20,    0.3,    0.2,    0.0,   -0.1,   -0.2,   -0.4,   -0.4,   -0.4,   -0.3,   -0.1,   -0.1,   -0.1,   -0.3,   -0.2,  999.0,   -1.3,   -1.4,   -1.5,   -1.6,   -1.7,   -1.6,   -1.5,   -1.4,   -1.3,   -1.3,   -1.2,   -1.2,   -1.0,   -1.0,   -1.1,   -1.0,   -1.1,   -1.0,   -1.0,   -1.0,   -1.0,   -0.9,   -0.8,   -0.7,   -0.7,   -0.8,   -0.7,   -0.7,   -0.7,   -0.6,   -1.0
2000/06/12 03:30,    0.5,    0.4,    0.4,    0.2,    0.4,  999.0,    0.1,  999.0,    0.2,    0.3,  999.0,    0.1,    0.0,   -0.4,   -0.1,   -1.2,   -1.0,   -1.3,   -1.4,   -1.4,   -1.5,   -1.3,   -1.3,   -1.3,   -1.3,   -1.1,   -1.0,   -1.1,   -1.0,   -1.1,   -1.1,   -1.1,   -1.0,   -0.9,   -0.8,   -0.9,   -0.8,   -0.8,   -0.7,   -0.8,   -0.9,   -0.8,   -0.9,   -0.8,   -0.6,   -0.7
2000/06/12 03:40,    0.3,    0.3,    0.2,    0.1,    0.1,  999.0,  999.0,  999.0,    0.1,    0.1,    0.0,  999.0,   -0.4,   -0.2,   -0.4,   -0.2,   -0.2,   -0.3,   -0.9,   -1.1,   -1.3,   -1.3,   -1.3,   -1.3,   -1.2,   -1.1,   -1.0,   -1.0,   -1.0,   -1.0,   -1.0,   -0.9,   -0.8,   -0.7,   -0.7,   -0.7,   -0.7,   -0.7,   -0.7,   -0.8,   -0.8,   -0.7,   -0.7,   -0.8,   -0.8,   -0.9
2000/06/12 03:50,  999.0,   -0.0,    0.0,   -0.1,   -0.0,   -0.2,  999.0,   -0.2,    0.0,    0.1,   -0.1,   -0.1,  999.0,  999.0,   -0.0,   -0.0,   -0.1,   -0.1,   -0.2,   -0.9,   -1.4,   -1.6,   -1.6,   -1.4,   -1.3,   -1.2,   -1.1,   -1.2,   -1.2,   -1.2,   -1.3,   -1.2,   -1.1,   -1.1,   -1.2,   -1.1,   -1.1,   -0.9,   -0.9,   -0.9,   -0.9,   -0.7,   -0.7,   -0.9,   -0.8,   -0.8
2000/06/12 04:00,  999.0,    0.1,  999.0,    0.0,    0.0,    0.0,   -0.1,  999.0,    0.0,   -0.1,    0.0,   -0.0,   -0.1,   -0.1,   -0.2,   -0.3,   -0.1,   -0.0,   -0.1,   -0.8,   -1.4,   -1.5,   -1.7,   -1.4,   -1.0,   -1.1,   -1.1,   -1.1,   -1.0,   -1.0,   -1.1,   -1.1,   -1.0,   -0.9,   -0.9,   -1.0,   -1.0,   -1.0,   -1.0,   -0.9,   -1.0,   -0.7,   -1.0,   -1.0,   -1.0,   -1.0
2000/06/12 04:10,  999.0,   -0.0,   -0.1,   -0.1,   -0.0,   -0.1,   -0.2,  999.0,   -0.1,  999.0,    0.0,  999.0,    0.0,   -0.2,   -0.0,   -0.1,   -0.1,  999.0,    0.2,   -0.4,  999.0,   -0.5,   -0.8,   -1.0,   -1.0,   -0.9,   -1.1,   -1.1,   -1.2,   -1.2,   -1.0,   -0.7,   -0.9,   -0.8,   -0.8,   -0.8,   -0.8,   -0.9,   -0.8,   -0.9,   -0.7,   -0.7,   -0.8,   -0.6,   -0.5,   -0.5
2000/06/12 04:20,  999.0,   -0.0,   -0.0,   -0.0,    0.0,    0.0,    0.1,  999.0,    0.1,   -0.0,  999.0,    0.0,  999.0,    0.0,    0.0,    0.1,    0.2,    0.2,  999.0,    0.0,   -0.3,   -0.8,   -1.1,   -1.1,   -1.1,   -1.1,   -1.2,   -1.2,   -1.2,   -1.1,   -0.9,   -0.6,   -0.7,   -0.7,   -0.9,   -0.9,   -0.9,   -0.8,   -1.0,   -0.9,   -0.9,   -0.7,   -0.7,   -0.6,   -0.7,   -0.8
2000/06/12 04:30,  999.0,  999.0,  999.0,   -0.0,   -0.0,  999.0,  999.0,  999.0,   -0.1,   -0.1,   -0.0,    0.0,  999.0,   -0.0,   -0.1,  999.0,  999.0,  999.0,  999.0,  999.0,    0.0,    0.1,   -0.1,  999.0,  999.0,   -1.2,   -1.3,   -1.3,   -1.3,   -1.2,   -1.1,   -0.7,   -1.0,   -0.9,   -0.9,   -0.8,   -0.8,   -0.8,   -0.8,   -0.7,   -0.7,   -0.7,   -0.7,   -0.5,   -0.6,   -0.5
2000/06/12 04:40,    0.0,  999.0,   -0.0,    0.0,   -0.0,   -0.0,  999.0,  999.0,   -0.0,   -0.1,  999.0,    0.1,  999.0,  999.0,  999.0,  999.0,  999.0,  999.0,  999.0,    0.0,   -0.0,    0.1,    0.0,   -0.2,   -0.9,   -1.3,   -1.3,   -1.2,   -0.9,   -0.7,   -0.6,   -0.5,   -0.9,   -1.3,   -1.0,   -0.9,   -0.8,   -0.8,   -0.8,   -0.8,   -0.9,   -0.8,   -0.7,   -0.8,   -0.7,   -0.7
2000/06/12 04:50,  999.0,  999.0,   -0.1,    0.0,  999.0,  999.0,  999.0,  999.0,  999.0,  999.0,   -0.0,  999.0,  999.0,  999.0,  999.0,   -0.2,  999.0,  999.0,  999.0,   -0.2,   -0.1,   -0.2,   -0.6,   -1.8,   -1.8,   -1.7,   -1.7,   -1.6,   -1.2,   -0.7,   -0.3,   -0.6,   -0.6,   -0.6,   -0.7,   -0.7,   -0.9,   -0.8,   -0.8,   -0.8,   -0.8,   -0.6,   -0.7,  999.0,   -0.4,   -0.5
2000/06/12 05:00,  999.0,   -0.1,    0.1,  999.0,    0.0,    0.1,  999.0,  999.0,    0.1,  999.0,    0.1,  999.0,  999.0,  999.0,    0.1,  999.0,    0.2,  999.0,  999.0,    0.0,   -0.1,    0.2,    0.0,   -0.6,   -1.0,   -1.1,   -1.2,   -1.2,   -1.5,   -1.5,   -1.2,   -1.1,   -1.3,   -1.1,   -1.0,   -1.1,   -0.9,   -0.9,   -0.8,   -0.7,   -0.7,   -0.8,   -0.7,   -0.7,   -0.5,   -0.5
2000/06/12 05:10,  999.0,  999.0,  999.0,    0.0,   -0.0,   -0.0,  999.0,  999.0,  999.0,  999.0,   -0.1,  999.0,  999.0,   -0.1,  999.0,  999.0,  999.0,  999.0,  999.0,  999.0,   -0.1,   -0.0,   -0.4,   -1.3,   -1.5,   -1.2,   -1.1,   -1.2,   -1.2,   -1.3,   -1.2,   -1.2,   -1.1,   -1.0,   -0.8,   -0.8,   -0.8,   -0.7,   -0.8,   -0.7,   -0.7,   -0.7,   -0.7,   -0.7,   -0.6,   -0.6
2000/06/12 05:20,  999.0,  999.0,   -0.0,   -0.0,   -0.0,   -0.1,   -0.0,   -0.1,  999.0,    0.0,  999.0,  999.0,  999.0,  999.0,  999.0,  999.0,  999.0,   -0.1,   -0.1,  999.0,    0.1,  999.0,  999.0,   -0.1,   -0.8,   -0.9,   -1.2,   -1.2,   -1.4,   -1.4,   -1.4,   -1.4,   -1.3,   -1.2,   -1.1,   -1.0,   -0.9,   -0.8,   -0.8,   -0.8,   -0.8,   -0.7,   -0.5,   -0.6,   -0.6,   -0.6
2000/06/12 05:30,  999.0,  999.0,  999.0,    0.0,   -0.0,   -0.0,   -0.0,  999.0,  999.0,  999.0,  999.0,    0.0,   -0.0,  999.0,    0.0,  999.0,  999.0,   -0.2,   -0.0,   -0.1,  999.0,  999.0,  999.0,  999.0,   -1.1,   -1.1,   -1.4,   -1.4,   -1.6,   -1.6,   -1.5,   -1.8,   -1.6,   -1.3,   -1.1,   -0.9,   -0.8,   -0.9,   -0.8,   -0.7,   -0.9,   -0.8,   -0.7,   -0.7,   -0.7,   -0.6
2000/06/12 05:40,  999.0,   -0.1,   -0.1,   -0.0,    0.0,    0.0,    0.0,   -0.0,  999.0,   -0.0,    0.0,    0.1,  999.0,   -0.0,    0.1,    0.1,  999.0,   -0.1,   -0.1,    0.1,  999.0,   -0.2,   -0.4,  999.0,  999.0,  999.0,  999.0,   -1.4,   -1.3,   -1.1,   -1.3,   -0.9,   -1.1,   -1.0,   -0.9,   -1.0,   -1.0,   -0.8,   -0.7,   -0.7,   -0.8,   -0.8,   -0.7,   -0.6,   -0.7,   -0.7
2000/06/12 05:50,  999.0,  999.0,   -0.1,    0.0,    0.0,  999.0,   -0.0,  999.0,  999.0,  999.0,  999.0,  999.0,  999.0,  999.0,  999.0,    0.1,  999.0,    0.2,    0.2,   -0.1,    0.0,   -0.1,  999.0,  999.0,  999.0,    0.3,  999.0,   -0.5,   -1.1,   -1.2,   -1.5,   -1.0,   -1.1,   -1.0,   -0.9,   -1.0,   -0.8,   -0.8,   -0.9,   -0.8,   -0.7,   -0.6,   -0.7,   -0.7,   -0.6,   -0.7
2000/06/12 06:00,  999.0,  999.0,  999.0,  999.0,  999.0,  999.0,  999.0,  999.0,  999.0,  999.0,  999.0,  999.0,  999.0,  999.0,  999.0,    0.0,    0.0,    0.1,  999.0,   -0.0,  999.0,  999.0,  999.0,  999.0,  999.0,    0.0,   -0.9,   -1.2,   -1.0,  999.0,   -1.3,   -0.9,   -1.1,   -1.0,   -0.9,   -0.9,   -0.9,   -0.8,   -0.8,   -0.8,   -0.8,   -0.7,   -0.6,   -0.7,   -0.6,   -0.7
2000/06/12 06:10,    0.4,    0.1,  999.0,    0.0,    0.0,    0.0,    0.0,  999.0,  999.0,  999.0,  999.0,  999.0,    0.1,    0.1,  999.0,   -0.2,  999.0,    0.0,    0.2,  999.0,  999.0,  999.0,  999.0,  999.0,  999.0,   -0.9,   -0.8,   -1.3,   -1.2,   -1.2,   -1.1,   -1.0,   -1.1,   -1.1,   -1.0,   -1.0,   -0.9,   -0.8,   -0.8,   -0.8,   -0.8,   -0.8,   -0.7,   -0.8,   -0.7,   -0.6
2000/06/12 06:20,    0.1,  999.0,  999.0,    0.0,    0.0,  999.0,    0.0,  999.0,  999.0,  999.0,  999.0,  999.0,    0.0,  999.0,  999.0,   -0.0,  999.0,  999.0,   -0.1,    0.2,  999.0,  999.0,  999.0,  999.0,   -0.0,   -0.8,   -1.0,   -1.2,   -1.3,   -1.2,   -1.1,   -0.9,   -1.1,   -1.0,   -1.0,   -1.0,   -1.0,   -0.9,   -0.9,   -0.8,   -0.8,   -0.8,   -0.8,   -0.7,   -0.7,   -0.7
2000/06/12 06:30,    0.2,    0.2,  999.0,  999.0,    0.0,  999.0,  999.0,  999.0,  999.0,  999.0,  999.0,  999.0,  999.0,    0.1,   -0.1,   -0.0,  999.0,   -0.0,   -0.2,  999.0,  999.0,   -0.1,   -0.7,    0.2,   -0.2,   -1.5,   -1.5,   -1.3,   -1.2,   -1.2,   -1.2,   -1.2,   -1.0,   -1.0,   -1.1,   -1.0,   -0.9,   -0.9,   -0.9,   -0.8,   -0.8,   -0.8,   -0.8,   -0.7,   -0.6,   -0.6
2000/06/12 06:40,    0.2,    0.2,   -0.0,    0.0,    0.0,   -0.1,   -0.1,  999.0,  999.0,  999.0,   -0.0,  999.0,  999.0,  999.0,  999.0,    0.0,    0.0,    0.1,   -0.2,    0.0,   -0.1,   -0.2,   -0.4,   -0.9,   -1.5,   -1.6,   -1.4,   -1.3,   -1.3,   -1.3,   -1.3,   -1.5,   -1.3,   -1.1,   -1.0,   -1.1,   -1.0,   -1.0,   -0.9,   -0.8,   -0.8,   -0.7,   -0.7,   -0.6,   -0.6,   -0.6
2000/06/12 06:50,    0.2,    0.2,   -0.0,   -0.1,   -0.1,   -0.1,   -0.1,   -0.3,  999.0,   -0.1,   -0.1,  999.0,    0.0,  999.0,  999.0,  999.0,  999.0,   -0.0,   -0.3,    0.0,   -0.2,   -0.4,   -0.2,   -0.5,   -0.9,   -1.1,   -1.2,   -1.2,   -1.2,   -1.2,   -1.2,   -1.3,   -1.1,   -1.0,   -0.9,   -0.8,   -0.6,   -0.6,   -0.6,   -0.7,   -0.7,   -0.7,   -0.6,   -0.6,   -0.5,   -0.6
2000/06/12 07:00,    0.2,    0.1,    0.1,    0.0,   -0.1,  999.0,   -0.0,  999.0,  999.0,   -0.0,   -0.0,   -0.1,  999.0,  999.0,    0.0,  999.0,    0.2,    0.1,  999.0,    0.1,    0.1,    0.1,   -0.1,   -0.8,   -1.3,   -1.3,   -1.3,   -1.3,   -1.3,   -1.2,   -1.2,   -1.2,   -1.0,   -0.9,   -0.9,   -0.9,   -0.8,   -0.8,   -0.8,   -0.8,   -0.8,   -0.7,   -0.7,   -0.6,   -0.6,   -0.6
2000/06/12 07:10,  999.0,    0.2,  999.0,  999.0,    0.1,   -0.1,  999.0,  999.0,  999.0,   -0.0,  999.0,   -0.1,  999.0,  999.0,  999.0,    0.2,  999.0,  999.0,    0.1,  999.0,   -0.0,   -0.1,   -0.6,   -0.9,   -1.4,   -1.4,   -1.3,   -1.4,   -1.3,   -1.2,   -1.2,   -1.0,   -1.0,   -0.9,   -0.9,   -0.9,   -1.0,   -0.8,   -0.8,   -0.6,   -0.7,  999.0,   -0.7,   -0.6,   -0.7,   -0.6
2000/06/12 07:20,    0.3,    0.2,    0.1,    0.0,   -0.0,   -0.1,   -0.0,   -0.0,   -0.0,  999.0,   -0.0,  999.0,    0.0,  999.0,  999.0,  999.0,  999.0,    0.1,   -0.1,    0.0,   -0.1,   -0.1,   -0.4,   -1.1,   -1.1,   -1.2,   -1.2,   -1.2,   -1.3,   -1.3,   -1.2,   -1.1,   -1.1,   -1.0,   -1.0,   -0.9,   -0.9,   -0.9,   -0.8,   -0.8,   -0.8,   -0.7,   -0.8,   -0.8,   -0.7,   -0.7
2000/06/12 07:30,    0.1,    0.1,    0.1,   -0.0,  999.0,   -0.0,   -0.0,   -0.1,   -0.1,  999.0,    0.0,  999.0,   -0.1,   -0.1,  999.0,  999.0,  999.0,   -0.0,    0.2,  999.0,  999.0,    0.2,   -0.2,   -0.1,   -1.1,   -1.1,   -1.2,   -1.2,   -1.2,   -1.3,   -1.2,   -1.1,   -1.1,   -1.0,   -1.0,   -0.9,   -0.9,   -0.8,   -0.8,   -0.8,   -0.9,   -0.8,   -0.8,   -0.7,   -0.7,   -0.7
2000/06/12 07:40,    0.1,  999.0,    0.0,    0.0,    0.0,    0.2,  999.0,  999.0,  999.0,    0.1,  999.0,  999.0,   -0.1,   -0.1,  999.0,  999.0,  999.0,    0.1,  999.0,  999.0,  999.0,  999.0,  999.0,    0.1,   -0.9,   -1.0,   -1.1,   -1.2,   -1.4,   -1.4,   -1.4,   -1.4,   -1.3,   -1.2,   -1.1,   -1.1,   -0.9,   -1.0,   -1.0,   -0.9,   -0.9,   -0.9,   -0.8,   -1.0,   -0.7,   -0.8
2000/06/12 07:50,    0.1,  999.0,    0.1,  999.0,  999.0,  999.0,  999.0,    0.2,  999.0,   -0.0,  999.0,   -0.2,  999.0,   -0.1,   -0.1,   -0.1,   -0.0,   -0.1,   -0.1,  999.0,    0.1,   -0.1,    0.3,   -0.2,   -0.8,   -1.2,   -1.2,   -1.4,   -1.4,   -1.4,   -1.6,   -1.4,   -1.3,   -1.3,   -1.2,   -1.1,   -0.9,   -1.0,   -1.0,   -0.9,  999.0,   -0.8,   -0.9,   -0.9,   -0.8,   -0.8
2000/06/12 08:00,  999.0,  999.0,  999.0,  999.0,   -0.1,   -0.1,   -0.1,  999.0,  999.0,  999.0,  999.0,  999.0,  999.0,  999.0,   -0.0,  999.0,   -0.0,  999.0,  999.0,  999.0,    0.0,   -0.1,   -0.3,   -0.9,   -1.1,   -1.2,   -1.3,   -1.4,   -1.5,   -1.4,   -1.5,   -1.6,   -1.2,   -1.2,   -1.0,   -0.9,   -0.8,   -0.8,  999.0,   -0.7,   -0.6,   -0.7,   -0.6,   -0.5,   -0.6,   -0.6
2000/06/12 08:10,   -0.0,  999.0,  999.0,  999.0,  999.0,  999.0,   -0.1,  999.0,  999.0,  999.0,  999.0,  999.0,   -0.0,  999.0,  999.0,  999.0,    0.1,   -0.4,  999.0,    0.1,   -0.2,  999.0,  999.0,  999.0,   -1.1,   -0.8,   -0.9,   -1.0,   -1.0,   -1.0,   -1.0,   -1.0,   -0.9,   -0.9,   -0.9,   -0.9,   -0.8,   -0.9,   -0.8,   -0.7,   -0.6,   -0.7,   -0.6,   -0.7,   -0.6,   -0.7
2000/06/12 08:20,  999.0,   -0.2,  999.0,   -0.1,   -0.1,  999.0,  999.0,  999.0,  999.0,  999.0,   -0.0,  999.0,    0.1,  999.0,  999.0,  999.0,  999.0,   -0.1,  999.0,  999.0,   -0.2,  999.0,   -0.5,   -0.2,  999.0,  999.0,  999.0,   -0.8,   -1.0,   -1.0,   -1.0,   -0.8,   -1.0,   -0.9,   -0.7,   -0.7,   -0.6,   -0.6,   -0.6,   -0.7,   -0.6,   -0.6,   -0.5,   -0.6,   -0.6,   -0.5
2000/06/12 08:30,  999.0,   -0.1,  999.0,  999.0,    0.0,  999.0,  999.0,  999.0,    0.1,  999.0,  999.0,  999.0,   -0.1,  999.0,   -0.1,  999.0,   -0.1,   -0.1,    0.0,   -0.0,  999.0,  999.0,   -0.1,  999.0,  999.0,  999.0,   -0.5,   -0.8,   -1.0,   -1.1,   -1.1,   -1.0,   -1.0,   -1.1,   -0.8,   -0.8,   -0.6,   -0.6,   -0.6,   -0.6,   -0.5,   -0.5,   -0.6,   -0.6,   -0.6,   -0.6
2000/06/12 08:40,  999.0,  999.0,    0.1,  999.0,  999.0,  999.0,  999.0,  999.0,  999.0,  999.0,  999.0,  999.0,  999.0,   -0.1,   -0.1,   -0.2,  999.0,   -0.2,  999.0,   -0.1,  999.0,   -0.2,   -0.4,  999.0,  999.0,  999.0,   -0.8,   -0.9,   -1.1,   -1.2,   -1.2,   -1.2,   -1.2,   -1.0,   -0.8,   -1.1,   -0.9,   -1.0,   -0.8,   -0.8,   -0.8,   -0.8,   -0.8,   -0.7,   -0.7,   -0.7
2000/06/12 08:50,  999.0,   -0.1,   -0.1,    0.0,    0.0,    0.0,   -0.0,   -0.1,   -0.2,  999.0,  999.0,  999.0,   -0.0,  999.0,   -0.0,   -0.0,  999.0,   -0.1,    0.1,    0.1,   -0.1,   -0.0,    0.0,    0.0,   -0.6,   -0.7,   -1.1,   -1.2,   -1.2,   -1.0,   -1.1,   -1.0,   -0.9,   -1.0,   -0.9,   -0.9,   -0.8,   -0.7,   -0.8,   -0.7,   -0.7,   -0.6,   -0.5,   -0.5,   -0.5,   -0.4
2000/06/12 09:00,  999.0,    0.2,  999.0,   -0.1,   -0.1,   -0.1,   -0.1,  999.0,   -0.1,  999.0,  999.0,  999.0,  999.0,  999.0,  999.0,  999.0,  999.0,  999.0,  999.0,  999.0,  999.0,   -0.1,   -0.1,   -0.2,  999.0,   -0.1,   -1.1,   -0.8,   -0.8,   -0.9,   -0.9,   -0.9,   -0.8,   -0.8,   -0.8,   -0.7,   -0.7,   -0.6,   -0.6,   -0.6,   -0.5,   -0.5,   -0.5,   -0.5,   -0.5,   -0.4
2000/06/12 09:10,  999.0,   -0.1,   -0.2,   -0.1,   -0.1,   -0.1,   -0.1,  999.0,   -0.1,   -0.0,    0.0,  999.0,  999.0,  999.0,  999.0,  999.0,    0.2,  999.0,    0.1,    0.0,  999.0,    0.4,    0.3,    0.1,    0.1,   -0.0,   -0.5,   -0.8,   -0.8,   -0.9,   -0.9,   -0.9,   -0.9,   -1.1,   -0.9,   -0.9,   -0.9,   -0.8,   -0.8,   -0.8,   -0.8,   -0.8,   -0.8,   -0.7,   -0.7,   -0.6
2000/06/12 09:20,  999.0,    0.2,    0.0,    0.1,   -0.0,    0.0,    0.1,  999.0,  999.0,    0.0,    0.1,    0.0,    0.0,  999.0,  999.0,  999.0,   -0.1,   -0.4,  999.0,  999.0,  999.0,   -0.4,   -0.1,   -0.4,   -0.5,   -0.8,   -1.0,   -1.3,   -1.1,   -1.0,   -0.8,   -0.8,   -0.8,   -0.9,   -0.8,   -0.9,   -0.7,   -0.7,   -0.8,   -0.7,   -0.8,   -0.8,   -0.7,   -0.7,   -0.6,   -0.5
2000/06/12 09:30,  999.0,  999.0,   -0.0,   -0.2,    0.0,   -0.1,   -0.1,   -0.1,  999.0,  999.0,   -0.2,  999.0,   -0.0,    0.1,   -0.0,    0.4,    0.1,  999.0,  999.0,  999.0,  999.0,    0.3,   -0.5,    0.2,   -0.0,   -0.6,   -1.2,   -1.2,   -0.9,   -0.6,   -0.7,   -1.3,   -1.1,   -1.1,   -0.8,   -1.1,   -0.7,   -1.0,   -0.9,   -1.0,   -0.8,   -0.8,   -0.7,   -0.6,   -0.6,   -0.5
2000/06/12 09:40,  999.0,   -0.1,   -0.2,  999.0,    0.0,   -0.0,   -0.1,  999.0,    0.0,   -0.0,  999.0,   -0.0,   -0.1,  999.0,   -0.0,   -0.2,    0.0,    0.2,  999.0,   -0.1,   -0.1,    0.0,   -0.2,   -0.1,    0.0,    0.1,   -0.8,   -1.1,   -1.1,   -1.2,   -1.2,   -1.2,   -1.2,   -1.0,   -1.0,   -1.1,   -1.0,   -1.1,   -1.0,   -0.9,   -0.9,   -0.8,   -0.8,   -0.7,   -0.7,   -0.6
2000/06/12 09:50,    0.1,   -0.1,   -0.1,    0.0,    0.0,   -0.0,    0.0,  999.0,   -0.2,   -0.2,   -0.1,   -0.2,  999.0,    0.1,    0.0,    0.2,    0.2,    0.2,    0.2,    0.1,   -0.0,    0.1,   -0.0,    0.1,   -0.1,   -0.9,   -1.3,   -1.3,   -1.3,   -1.2,   -1.0,   -1.0,   -1.1,   -1.0,   -1.0,   -1.0,   -1.0,   -0.9,   -0.9,   -0.9,   -0.8,   -0.8,   -0.7,   -0.7,   -0.7,   -0.6
2000/06/12 10:00,   -0.1,  999.0,   -0.1,    0.0,    0.0,    0.0,   -0.0,   -0.0,   -0.2,   -0.0,   -0.1,   -0.0,   -0.3,   -0.1,   -0.0,    0.0,   -0.1,   -0.1,   -0.3,   -0.2,    0.1,    0.1,   -0.3,   -0.2,   -0.1,   -1.3,   -1.3,   -1.2,   -1.4,   -1.5,   -1.4,   -1.4,   -1.3,   -1.2,   -1.2,   -1.1,   -0.8,   -1.0,   -1.0,   -0.8,   -0.8,   -0.8,   -0.7,   -0.7,   -0.7,   -0.6
2000/06/12 10:10,   -0.1,   -0.1,   -0.0,    0.1,    0.0,    0.0,   -0.1,   -0.2,   -0.4,   -0.3,   -0.0,    0.1,  999.0,   -0.2,  999.0,    0.1,    0.1,    0.0,   -0.7,   -0.3,    0.0,   -0.3,    0.0,   -0.1,   -0.2,   -1.1,   -1.3,   -1.3,   -1.4,   -1.4,   -1.3,   -1.3,   -1.2,   -1.2,   -1.1,   -1.3,   -1.1,   -1.1,   -1.1,   -1.1,   -1.0,   -0.9,   -0.8,   -0.9,   -0.8,   -0.7
2000/06/12 10:20,   -0.1,   -0.0,   -0.0,   -0.1,   -0.1,    0.0,   -0.1,   -0.1,   -0.3,   -0.3,   -0.3,   -0.3,  999.0,    0.0,   -0.2,   -0.1,    0.1,   -0.7,    0.3,    0.2,    0.7,   -0.2,   -0.4,   -0.9,   -1.7,   -1.7,   -1.6,   -1.6,   -1.5,   -1.6,   -1.5,   -1.5,   -1.4,   -1.4,   -1.4,   -1.2,  999.0,   -1.2,   -1.1,   -1.1,   -1.0,   -1.0,   -1.0,   -0.8,   -0.8,   -0.7
2000/06/12 10:30,  999.0,  999.0,    0.2,    0.1,    0.2,  999.0,  999.0,  999.0,   -0.3,   -0.1,    0.2,    0.1,    0.2,   -0.0,  999.0,  999.0,    0.0,    0.1,    0.2,   -0.0,    0.1,   -0.9,   -0.5,   -0.8,   -2.0,   -1.9,   -1.4,   -1.2,   -1.4,   -1.4,   -1.5,   -1.4,   -1.4,   -1.3,   -1.2,   -1.2,   -1.1,   -1.0,  999.0,   -0.9,   -0.9,   -0.7,   -0.8,   -0.7,   -0.6,   -0.8
2000/06/12 10:40,  999.0,  999.0,  999.0,  999.0,   -0.0,   -0.1,   -0.1,   -0.0,    0.1,    0.2,    0.1,    0.4,    0.2,    0.2,   -0.1,   -0.1,   -0.1,   -0.3,   -0.3,   -0.2,   -0.2,    0.5,    0.6,   -1.2,   -1.7,   -1.6,   -1.4,   -1.6,   -1.2,   -1.3,   -1.2,   -1.3,   -1.2,   -1.2,   -1.2,   -1.1,   -1.1,   -1.1,   -1.1,   -0.8,   -0.8,   -0.8,   -0.7,   -0.6,   -0.7,   -0.7
2000/06/12 10:50,  999.0,    0.2,  999.0,  999.0,  999.0,    0.0,   -0.0,    0.2,   -0.1,    0.0,   -0.5,   -0.1,   -0.1,   -0.0,    0.3,    0.3,   -0.1,    0.3,    0.3,   -0.6,   -0.4,   -0.1,   -1.3,   -2.7,   -2.5,   -1.7,   -1.6,   -1.5,   -1.3,   -1.0,   -1.1,   -1.1,   -1.2,   -1.2,   -1.1,   -1.2,   -1.1,   -1.0,   -0.9,   -0.9,   -0.8,   -0.8,   -0.6,   -0.7,   -0.7,   -0.7
2000/06/12 11:00,   -0.1,    0.1,  999.0,    0.0,    0.0,    0.0,    0.0,  999.0,   -0.4,  999.0,    0.1,    0.0,    0.0,    0.1,   -0.1,   -0.4,   -0.1,    0.1,   -0.1,   -0.2,    0.1,  999.0,   -2.3,   -2.6,   -1.9,   -1.4,   -1.4,   -1.0,   -1.1,   -1.1,   -1.0,   -0.9,   -1.0,   -1.0,   -1.1,   -1.2,   -1.2,   -1.1,   -1.2,   -1.1,   -1.0,   -0.9,   -0.8,   -0.8,   -0.7,   -0.7
2000/06/12 11:10,   -0.0,   -0.1,  999.0,    0.2,   -0.0,    0.0,    0.0,  999.0,  999.0,    0.1,   -0.3,    0.1,   -0.1,    0.1,   -0.0,   -0.0,   -0.1,    0.2,    0.6,    0.7,    0.2,   -1.1,   -2.7,   -2.9,   -1.8,   -1.4,   -1.4,   -1.4,   -0.9,   -0.6,   -0.8,   -0.9,   -1.0,   -1.1,   -1.1,   -1.1,   -1.1,   -1.1,   -1.1,   -1.0,   -0.9,   -0.9,   -0.7,  999.0,   -0.5,   -0.6
2000/06/12 11:20,    0.1,    0.0,   -0.1,    0.3,   -0.1,    0.2,   -0.0,   -0.0,   -0.2,   -0.3,   -0.4,   -0.5,  999.0,    0.3,    0.5,    0.2,    0.1,    0.4,    0.0,    0.1,   -0.5,   -0.5,   -1.6,   -1.6,   -1.5,   -1.4,   -1.2,   -0.6,   -0.7,   -0.7,   -0.8,   -1.0,   -1.1,   -1.1,   -1.1,   -1.0,   -1.0,   -0.9,   -0.9,   -0.8,   -0.7,   -0.7,   -0.6,   -0.5,   -0.5,   -0.4
2000/06/12 11:30,  999.0,    0.1,    0.1,    0.4,    0.0,   -0.2,   -0.0,    0.1,   -0.3,    0.1,   -0.3,  999.0,   -0.3,    0.3,   -0.5,    0.3,   -0.1,    0.4,   -0.3,   -1.6,   -1.7,   -1.7,   -1.5,   -1.6,   -1.7,   -1.6,   -1.3,   -1.1,   -0.9,   -1.3,   -1.0,   -1.1,   -1.1,   -1.3,   -1.2,   -1.0,   -1.0,   -1.1,   -1.0,   -1.0,   -1.0,   -0.9,   -0.8,   -0.7,   -0.7,   -0.7
2000/06/12 11:40,   -0.1,    0.0,   -0.2,    0.0,   -0.0,    0.1,    0.0,  999.0,    0.1,    0.1,  999.0,  999.0,   -0.2,   -0.6,   -0.6,   -0.0,    0.2,   -0.3,   -1.1,   -1.3,   -1.8,   -1.8,   -1.6,   -1.8,   -1.7,   -1.3,   -1.1,   -0.8,   -0.8,   -0.7,   -1.3,   -1.0,   -1.1,   -1.2,   -1.3,   -1.3,   -1.2,   -1.3,   -1.2,   -1.3,   -0.9,   -0.9,   -0.7,   -0.7,   -0.6,   -0.6
2000/06/12 11:50,    0.0,   -0.3,   -0.4,   -0.5,   -0.3,   -0.3,   -0.1,   -0.2,   -0.2,    0.0,  999.0,   -0.5,   -0.4,   -0.2,    0.3,    0.4,   -0.4,   -0.6,   -1.4,   -1.5,   -2.0,   -1.7,   -1.4,   -0.9,   -1.8,   -1.6,   -1.6,   -1.1,   -0.7,   -0.6,   -1.2,   -1.3,   -1.4,   -1.4,   -1.3,   -1.2,   -1.2,   -1.1,   -1.1,   -1.0,   -0.9,   -0.9,   -0.7,   -0.6,   -0.6,   -0.5
2000/06/12 12:00,    0.2,    0.0,    0.2,    0.0,    0.1,    0.1,    0.1,    0.3,    0.0,    0.1,   -0.1,    0.0,   -0.1,   -0.7,    0.0,   -0.2,   -1.6,   -1.9,   -1.7,   -2.1,   -2.0,   -2.0,   -1.8,   -1.9,   -1.6,   -1.5,   -1.4,   -0.9,   -0.9,   -1.0,   -1.2,   -1.2,   -1.3,   -1.3,   -1.2,   -1.2,   -1.2,   -1.2,   -1.1,   -0.9,   -1.0,   -1.0,   -0.8,   -0.7,   -0.7,   -0.6
2000/06/12 12:10,  999.0,   -0.1,   -0.2,   -0.1,   -0.1,   -0.1,  999.0,    0.3,    0.4,    0.6,    0.8,    0.6,    0.2,    0.3,    0.1,   -0.2,   -1.3,   -1.4,   -1.5,   -1.6,   -1.7,   -2.2,   -1.6,   -1.5,   -1.3,   -1.1,   -1.0,   -1.0,   -0.9,   -0.9,   -1.0,   -1.1,   -1.1,   -1.1,   -1.1,   -1.0,   -0.9,   -0.9,   -1.0,   -0.8,   -0.8,   -0.8,   -0.7,   -0.6,   -0.5,   -0.5
2000/06/12 12:20,   -0.2,   -0.1,   -0.4,   -0.3,   -0.2,   -0.3,  999.0,   -0.1,    0.1,    0.2,  999.0,    0.8,    0.2,    0.0,    0.0,   -0.1,   -0.7,   -0.8,   -1.7,   -1.7,   -1.4,   -2.2,   -1.8,   -1.8,   -1.7,   -1.2,   -1.0,   -0.7,   -0.9,   -0.8,   -1.0,   -1.1,   -1.1,   -1.0,   -1.0,   -1.0,   -0.9,   -0.8,   -0.8,   -1.0,   -0.9,   -0.9,   -0.7,   -0.7,   -0.6,   -0.5
2000/06/12 12:30,   -0.1,   -0.1,   -0.3,   -0.3,  999.0,   -0.0,  999.0,   -0.0,   -0.0,    0.2,    0.6,    0.5,    0.5,    0.6,    0.3,  999.0,   -1.1,   -1.6,   -2.0,   -1.6,   -1.5,   -1.5,   -1.6,   -1.6,   -1.7,   -1.2,  999.0,   -1.0,   -0.8,   -1.0,   -1.0,   -1.0,   -1.0,   -1.0,   -1.0,   -1.0,   -0.9,   -1.0,   -1.0,   -1.0,   -0.9,   -0.8,   -0.7,   -0.6,   -0.5,   -0.4
2000/06/12 12:40,   -0.3,   -0.1,   -0.5,   -0.1,   -0.1,  999.0,   -0.3,   -0.5,   -0.1,  999.0,    0.1,  999.0,    0.4,    0.5,    0.4,   -0.2,   -0.6,   -1.0,   -0.8,   -1.5,   -1.5,   -1.6,   -1.3,   -1.2,   -1.3,   -1.2,   -1.1,   -1.1,   -1.2,   -1.2,   -1.1,   -1.2,   -1.3,   -1.2,   -1.3,   -1.1,   -1.1,   -1.1,   -0.9,   -0.7,   -0.8,   -0.7,   -0.6,   -0.6,   -0.6,   -0.6
2000/06/12 12:50,    0.4,    0.6,    0.3,    0.3,  999.0,   -0.5,   -0.5,   -0.7,   -1.0,   -1.3,   -1.1,   -0.2,   -0.6,   -1.1,   -0.8,   -2.2,   -2.0,   -2.3,   -1.7,   -1.5,   -1.7,   -1.6,   -1.4,   -0.9,   -1.1,   -1.0,   -1.0,   -1.0,   -1.1,   -1.2,   -1.2,   -1.3,   -1.3,   -1.2,   -1.3,   -1.2,   -1.1,   -1.1,   -0.9,   -0.7,   -0.8,   -0.5,   -0.5,   -0.6,   -0.6,   -0.5
2000/06/12 13:00,    0.3,    0.2,    0.2,    0.4,   -0.0,   -0.2,   -0.0,   -0.8,   -0.7,   -0.3,    0.1,    0.1,    0.1,   -0.1,   -0.2,   -0.3,   -1.1,   -1.7,   -1.6,   -1.8,   -1.5,   -1.7,   -1.3,   -1.6,   -1.1,   -1.0,   -1.0,   -0.9,   -1.0,   -1.2,   -1.3,   -1.3,   -1.2,   -1.1,   -1.1,   -1.1,   -1.0,   -1.0,   -0.9,   -0.9,   -0.9,   -0.8,   -0.7,   -0.8,   -0.7,   -0.8
2000/06/12 13:10,    0.2,    0.2,   -0.2,  999.0,   -0.5,   -0.4,   -0.3,   -0.3,   -0.3,   -0.1,   -0.3,    0.2,    0.6,   -0.3,   -0.4,   -0.1,   -1.3,   -1.9,   -1.6,   -1.5,   -1.6,   -2.2,   -2.1,   -1.6,   -1.5,   -1.3,   -1.3,   -1.0,   -1.1,   -1.1,   -1.2,   -1.3,   -1.2,   -1.2,   -1.1,   -1.1,   -1.1,   -1.0,   -1.0,   -1.0,   -0.9,   -0.9,   -0.8,   -0.8,   -0.8,   -0.7
2000/06/12 13:20,    0.3,    0.3,    0.2,   -0.0,  999.0,    0.6,  999.0,  999.0,    0.0,  999.0,    0.2,    0.6,    0.5,    1.3,   -0.6,   -1.7,   -1.3,   -1.1,   -1.6,   -1.9,   -1.9,   -2.0,   -1.8,   -1.5,   -1.4,   -1.3,   -1.1,   -1.0,   -1.1,   -1.1,   -1.2,   -1.2,   -1.2,   -1.0,   -1.0,   -1.0,   -1.0,   -1.0,   -0.9,   -0.8,   -0.9,   -0.8,   -0.8,  999.0,  999.0,  999.0
2000/06/12 13:30,  999.0,  999.0,  999.0,  999.0,  999.0,  999.0,  999.0,  999.0,  999.0,  999.0,  999.0,  999.0,  999.0,  999.0,  999.0,  999.0,  999.0,  999.0,  999.0,  999.0,  999.0,  999.0,  999.0,  999.0,  999.0,  999.0,  999.0,  999.0,  999.0,  999.0,  999.0,  999.0,  999.0,  999.0,  999.0,  999.0,  999.0,  999.0,  999.0,  999.0,  999.0,  999.0,  999.0,  999.0,  999.0,  999.0
2000/06/12 13:40,  999.0,  999.0,  999.0,  999.0,  999.0,  999.0,  999.0,  999.0,  999.0,  999.0,  999.0,  999.0,  999.0,  999.0,  999.0,  999.0,  999.0,  999.0,  999.0,  999.0,  999.0,  999.0,  999.0,  999.0,  999.0,  999.0,  999.0,  999.0,  999.0,  999.0,  999.0,  999.0,  999.0,  999.0,  999.0,  999.0,  999.0,  999.0,  999.0,  999.0,  999.0,  999.0,  999.0,  999.0,  999.0,  999.0
2000/06/12 13:50,  999.0,  999.0,  999.0,  999.0,  999.0,  999.0,  999.0,  999.0,  999.0,  999.0,  999.0,  999.0,  999.0,  999.0,  999.0,  999.0,  999.0,  999.0,  999.0,  999.0,  999.0,  999.0,  999.0,  999.0,  999.0,  999.0,  999.0,  999.0,  999.0,  999.0,  999.0,  999.0,  999.0,  999.0,  999.0,  999.0,  999.0,  999.0,  999.0,  999.0,  999.0,  999.0,  999.0,  999.0,  999.0,  999.0
2000/06/12 14:00,  999.0,  999.0,  999.0,  999.0,  999.0,  999.0,  999.0,  999.0,  999.0,  999.0,  999.0,  999.0,  999.0,  999.0,  999.0,  999.0,  999.0,  999.0,  999.0,  999.0,  999.0,  999.0,  999.0,  999.0,  999.0,  999.0,  999.0,  999.0,  999.0,  999.0,  999.0,  999.0,  999.0,  999.0,  999.0,  999.0,  999.0,  999.0,  999.0,  999.0,  999.0,  999.0,  999.0,  999.0,  999.0,  999.0
2000/06/12 14:10,  999.0,  999.0,  999.0,  999.0,  999.0,  999.0,  999.0,  999.0,  999.0,  999.0,  999.0,  999.0,  999.0,  999.0,  999.0,  999.0,  999.0,  999.0,  999.0,  999.0,  999.0,  999.0,  999.0,  999.0,  999.0,  999.0,  999.0,  999.0,  999.0,  999.0,  999.0,  999.0,  999.0,  999.0,  999.0,  999.0,  999.0,  999.0,  999.0,  999.0,  999.0,  999.0,  999.0,  999.0,  999.0,  999.0
2000/06/12 14:20,  999.0,  999.0,  999.0,  999.0,   -1.6,   -2.6,   -1.6,  999.0,  999.0,  999.0,    1.6,    1.0,    0.6,    0.5,    0.1,   -0.2,   -1.4,   -1.4,  999.0,   -1.1,   -1.2,   -1.2,   -1.1,   -0.6,   -0.9,   -1.0,   -0.9,   -0.9,   -0.9,   -1.0,   -1.1,   -0.9,   -1.0,   -1.0,   -1.0,   -1.0,   -1.0,   -0.9,  999.0,   -0.8,   -1.4,   -0.8,   -0.9,  999.0,   -0.9,  999.0
2000/06/12 14:30,  999.0,  999.0,  999.0,  999.0,  999.0,  999.0,  999.0,  999.0,  999.0,  999.0,  999.0,  999.0,  999.0,  999.0,  999.0,  999.0,  999.0,  999.0,  999.0,  999.0,  999.0,  999.0,  999.0,  999.0,  999.0,  999.0,  999.0,  999.0,  999.0,  999.0,  999.0,  999.0,  999.0,  999.0,  999.0,  999.0,  999.0,  999.0,  999.0,  999.0,  999.0,  999.0,  999.0,  999.0,  999.0,  999.0
2000/06/12 14:40,  999.0,  999.0,  999.0,  999.0,  999.0,  999.0,  999.0,  999.0,  999.0,  999.0,  999.0,  999.0,  999.0,  999.0,  999.0,  999.0,  999.0,  999.0,  999.0,  999.0,  999.0,  999.0,  999.0,  999.0,  999.0,  999.0,  999.0,  999.0,  999.0,  999.0,  999.0,  999.0,  999.0,  999.0,  999.0,  999.0,  999.0,  999.0,  999.0,  999.0,  999.0,  999.0,  999.0,  999.0,  999.0,  999.0
2000/06/12 14:50,  999.0,  999.0,  999.0,  999.0,  999.0,  999.0,  999.0,  999.0,  999.0,  999.0,  999.0,  999.0,  999.0,  999.0,  999.0,  999.0,  999.0,  999.0,  999.0,  999.0,  999.0,  999.0,  999.0,  999.0,  999.0,  999.0,  999.0,  999.0,  999.0,  999.0,  999.0,  999.0,  999.0,  999.0,  999.0,  999.0,  999.0,  999.0,  999.0,  999.0,  999.0,  999.0,  999.0,  999.0,  999.0,  999.0
2000/06/12 15:00,  999.0,  999.0,  999.0,  999.0,  999.0,  999.0,  999.0,  999.0,  999.0,  999.0,  999.0,  999.0,  999.0,  999.0,  999.0,  999.0,  999.0,  999.0,  999.0,  999.0,  999.0,  999.0,  999.0,  999.0,  999.0,  999.0,  999.0,  999.0,  999.0,  999.0,  999.0,  999.0,  999.0,  999.0,  999.0,  999.0,  999.0,  999.0,  999.0,  999.0,  999.0,  999.0,  999.0,  999.0,  999.0,  999.0
2000/06/12 15:10,  999.0,  999.0,  999.0,  999.0,  999.0,  999.0,  999.0,  999.0,  999.0,  999.0,  999.0,  999.0,  999.0,  999.0,  999.0,  999.0,  999.0,  999.0,  999.0,  999.0,  999.0,  999.0,  999.0,  999.0,  999.0,  999.0,  999.0,  999.0,  999.0,  999.0,  999.0,  999.0,  999.0,  999.0,  999.0,  999.0,  999.0,  999.0,  999.0,  999.0,  999.0,  999.0,  999.0,  999.0,  999.0,  999.0
2000/06/12 15:20,  999.0,  999.0,  999.0,   -2.2,   -2.1,   -1.8,   -1.9,   -1.9,   -1.8,  999.0,  999.0,    0.2,    0.3,    0.2,    0.4,   -1.1,  999.0,  999.0,   -1.5,   -1.7,   -1.3,   -1.3,   -0.9,   -0.9,   -0.8,   -0.8,   -0.9,   -0.9,   -0.9,   -1.0,   -1.0,   -1.1,   -1.1,   -1.2,   -1.1,   -1.0,   -1.0,   -1.1,   -1.2,   -1.1,   -1.2,   -1.1,  999.0,  999.0,  999.0,  999.0
2000/06/12 15:30,   -2.1,   -2.4,   -2.9,   -2.9,   -3.3,   -3.1,   -2.7,  999.0,   -1.9,   -2.2,   -1.3,   -0.4,   -0.1,   -0.0,   -0.3,   -0.6,   -1.0,   -1.0,   -1.2,   -1.4,   -1.4,   -1.3,   -1.3,   -1.2,   -1.0,   -1.0,   -1.0,   -0.9,   -0.9,   -0.9,   -0.9,   -0.9,   -0.9,   -0.8,   -0.8,   -0.8,   -0.8,   -0.8,   -0.8,   -0.8,   -0.8,   -0.8,  999.0,   -0.8,  999.0,  999.0
2000/06/12 15:40,   -2.3,   -2.5,   -2.0,   -1.6,   -1.2,   -1.3,   -0.9,   -1.4,   -1.5,   -1.6,   -1.2,   -1.0,    0.0,  999.0,   -0.2,   -1.0,   -0.9,   -1.1,   -1.1,   -1.3,   -1.3,   -1.1,   -1.1,   -1.0,   -0.9,   -0.8,   -0.9,   -0.9,   -1.1,   -1.0,   -1.1,   -1.0,   -1.0,   -1.0,   -1.0,   -0.9,   -0.8,   -1.0,   -0.9,   -0.8,   -0.8,   -0.8,  999.0,  999.0,  999.0,  999.0
2000/06/12 15:50,   -2.6,   -2.6,   -2.4,   -2.0,   -1.6,  999.0,   -1.1,   -3.4,   -2.7,   -1.7,   -1.9,   -1.1,   -0.8,   -0.2,   -0.1,   -0.2,   -0.5,   -1.0,   -1.1,   -1.3,   -1.5,   -1.4,   -1.2,   -1.1,   -1.0,   -1.0,   -1.0,   -1.1,   -1.2,   -1.2,   -1.1,   -1.0,   -0.9,   -0.8,   -0.8,   -0.7,   -0.7,   -0.7,   -0.6,  999.0,   -0.6,   -0.5,  999.0,  999.0,  999.0,  999.0
2000/06/12 16:00,   -1.4,   -1.6,   -1.4,   -0.9,  999.0,   -3.3,   -3.3,   -3.2,   -3.0,   -2.9,   -2.9,   -2.3,   -1.5,   -0.7,   -0.2,   -0.3,   -0.5,   -1.1,   -1.1,   -1.2,   -1.0,   -1.0,   -0.8,   -0.7,   -0.8,   -0.9,   -0.9,   -0.9,   -0.9,   -1.0,   -1.1,   -1.0,   -1.0,   -0.9,   -0.8,   -0.8,   -0.8,   -0.8,   -0.8,   -0.8,   -0.7,   -0.7,   -0.7,   -0.6,   -0.8,   -0.5
2000/06/12 16:10,  999.0,  999.0,  999.0,  999.0,   -3.4,  999.0,   -2.3,   -2.2,   -2.0,   -2.1,   -2.1,   -1.8,   -1.1,   -0.7,   -0.2,   -0.1,   -0.8,   -0.9,   -0.8,   -0.9,   -0.8,   -1.0,   -0.9,   -0.8,   -0.8,   -0.7,   -0.6,   -0.8,   -0.9,   -1.0,   -1.1,   -1.0,   -1.0,   -0.8,   -0.9,   -0.8,   -0.9,   -0.8,   -0.8,   -0.8,   -0.8,   -0.8,   -0.8,   -0.6,   -0.6,   -0.8
2000/06/12 16:20,   -4.6,   -4.2,   -3.9,   -3.8,   -2.9,   -2.6,   -2.6,   -2.7,   -2.4,   -2.4,   -2.4,   -2.2,   -2.2,   -1.2,   -0.3,   -0.2,   -0.2,   -0.6,   -1.0,   -1.0,   -1.2,   -1.0,   -0.9,   -0.8,   -0.8,   -0.7,   -0.8,   -0.9,   -1.0,   -1.0,   -1.2,   -1.2,   -1.0,   -1.0,   -1.0,   -0.9,   -1.0,   -1.0,   -1.1,   -0.9,   -0.9,   -0.7,  999.0,  999.0,  999.0,  999.0
2000/06/12 16:30,   -4.6,   -4.2,   -4.3,  999.0,  999.0,  999.0,   -3.4,   -2.4,   -2.8,   -2.1,   -2.5,   -2.4,   -1.8,   -1.6,   -1.3,   -1.2,   -0.8,   -1.6,   -1.7,   -1.8,   -1.6,   -1.2,   -1.0,   -1.0,   -0.9,   -0.9,   -0.8,   -0.9,   -0.9,   -1.0,   -1.1,   -1.1,   -1.0,   -0.8,   -0.9,   -0.9,   -0.8,   -0.9,   -1.0,   -0.9,   -0.8,  999.0,  999.0,  999.0,  999.0,  999.0
2000/06/12 16:40,   -1.9,  999.0,  999.0,   -4.8,   -4.4,   -4.0,   -3.6,   -3.6,   -3.4,   -3.2,   -3.3,   -3.5,  999.0,   -0.8,   -0.6,   -0.6,   -0.8,   -1.3,   -1.4,   -1.5,   -1.2,   -1.0,   -0.9,   -1.0,   -1.0,   -1.0,   -0.9,   -1.0,   -0.9,   -1.0,   -1.0,   -0.9,   -0.8,   -0.8,   -0.9,   -0.9,   -0.9,   -0.8,   -0.7,   -0.8,   -0.7,   -0.7,   -0.6,   -0.6,   -0.5,  999.0
2000/06/12 16:50,   -1.5,   -1.5,  999.0,  999.0,   -4.1,   -4.0,   -4.2,   -4.2,   -3.9,   -3.6,   -3.8,   -3.4,   -1.9,   -1.3,   -1.4,   -1.3,   -1.0,   -0.8,   -1.3,   -2.0,   -1.8,   -1.1,   -1.2,   -1.1,   -0.8,   -0.9,   -0.8,   -0.9,   -0.9,   -0.9,   -1.0,   -1.0,   -1.0,   -1.0,   -1.0,   -0.9,   -0.9,   -0.8,   -0.8,  999.0,   -0.7,   -0.7,   -1.0,   -0.7,   -0.5,  999.0
2000/06/12 17:00,  999.0,   -3.5,   -3.9,   -3.8,   -4.1,   -4.2,   -4.5,   -4.1,   -3.8,   -4.0,   -4.2,   -3.6,   -1.8,   -1.1,   -1.5,   -1.5,   -1.4,   -1.5,   -1.6,   -1.8,   -1.6,   -1.5,   -1.4,   -1.2,   -1.1,   -1.0,   -1.0,   -1.1,   -1.1,   -1.1,   -1.1,   -1.1,   -1.0,   -1.0,   -1.1,   -1.0,   -1.0,   -1.0,   -1.0,   -0.9,   -0.9,   -0.9,   -0.8,   -0.8,   -0.8,   -0.7
2000/06/12 17:10,   -4.0,   -4.2,   -4.1,   -3.9,   -4.0,   -4.0,   -3.8,   -3.3,   -3.3,   -3.3,   -3.3,   -3.4,  999.0,   -1.3,   -0.9,   -0.9,   -1.4,   -1.7,   -1.7,   -1.7,   -1.4,   -1.3,   -1.2,   -1.1,   -1.1,   -1.0,   -1.1,   -1.1,   -1.1,   -1.2,   -1.2,   -1.1,   -1.0,   -1.1,   -1.1,   -1.0,   -1.0,   -1.0,   -1.0,   -1.0,   -0.9,   -0.9,   -0.8,   -0.9,   -0.8,   -0.7
2000/06/12 17:20,   -3.2,   -3.2,   -3.1,   -3.2,   -3.0,   -2.8,   -2.7,   -2.4,   -2.3,   -2.0,   -2.6,   -2.3,   -1.5,   -1.0,   -0.7,   -0.8,   -1.0,   -1.2,   -1.5,   -1.3,   -1.3,   -1.2,   -1.2,   -1.2,   -1.1,   -1.1,   -1.0,   -1.1,   -1.1,   -1.1,   -1.1,   -1.0,   -1.1,   -1.0,   -1.0,   -1.1,   -1.0,   -1.0,   -1.0,   -0.9,   -0.9,   -0.7,   -0.7,   -0.8,   -0.5,   -0.6
2000/06/12 17:30,   -2.3,   -2.5,   -2.7,   -3.0,   -2.6,   -2.4,   -2.2,   -2.5,   -2.5,   -2.6,   -2.2,   -2.4,   -1.5,   -1.0,   -0.9,   -1.0,   -1.1,   -1.0,   -1.3,   -1.2,   -1.3,   -1.1,   -1.1,   -1.0,   -1.0,   -0.9,   -0.9,   -0.9,   -0.9,   -0.9,   -0.9,   -0.9,   -0.9,   -0.9,   -0.9,   -0.9,   -0.9,   -0.9,   -0.9,   -0.9,   -0.8,   -0.8,   -0.8,   -0.8,   -0.8,   -0.6
2000/06/12 17:40,   -2.4,   -2.4,   -2.4,   -2.1,   -2.7,   -2.1,   -2.6,   -2.9,   -2.5,   -2.6,   -2.6,   -2.5,   -1.7,   -0.9,   -1.2,   -1.4,   -1.5,   -1.6,   -1.5,   -1.3,   -1.2,   -1.2,   -1.0,   -1.0,   -1.0,   -0.9,   -0.9,   -0.9,   -0.9,   -1.0,   -1.0,   -1.0,   -1.0,   -1.0,   -1.0,   -1.0,   -0.9,   -0.9,   -1.0,   -1.0,   -1.0,   -0.9,   -0.7,   -0.7,   -0.6,   -0.7
2000/06/12 17:50,   -4.3,   -4.0,  999.0,   -4.0,   -4.0,   -4.0,   -4.2,   -4.0,   -3.9,   -3.9,   -3.9,   -3.6,  999.0,  999.0,  999.0,  999.0,   -1.3,   -1.3,   -1.2,   -1.1,   -1.1,   -1.0,   -1.0,   -1.0,   -1.0,   -0.9,   -0.9,   -1.0,   -1.0,   -0.9,   -1.0,   -1.0,   -1.0,   -1.0,   -1.0,   -1.0,   -1.0,   -1.0,   -1.0,   -0.9,   -0.9,   -0.9,   -0.9,   -0.9,   -0.7,   -0.7
2000/06/12 18:00,  999.0,  999.0,  999.0,  999.0,   -3.7,   -3.9,   -3.8,   -3.1,   -3.3,   -3.0,   -3.0,   -2.8,   -1.5,  999.0,   -1.1,   -1.2,   -1.4,   -1.6,   -1.7,   -1.4,   -1.3,   -1.2,   -1.2,   -1.1,   -1.1,   -1.1,   -1.1,   -1.1,   -1.1,   -1.0,   -1.1,   -1.1,   -1.1,   -1.1,   -1.1,   -1.1,   -1.1,   -1.1,   -1.1,   -1.1,   -1.1,   -1.0,   -0.9,   -0.8,   -0.9,   -0.8
2000/06/12 18:10,   -2.7,   -2.6,   -2.5,   -2.4,   -2.2,   -1.9,   -1.8,   -2.0,   -1.8,   -2.1,   -1.6,   -2.2,   -1.4,   -1.1,   -1.1,   -1.4,   -1.5,   -1.7,   -1.4,   -1.3,   -1.2,   -1.1,   -1.1,   -1.1,   -1.0,   -1.1,   -1.0,   -1.0,   -1.0,   -1.1,   -1.1,   -1.1,   -1.2,   -1.2,   -1.2,   -1.2,   -1.2,   -1.2,   -1.1,   -1.2,   -1.2,   -1.0,   -1.0,   -1.0,   -1.0,   -0.9
2000/06/12 18:20,   -5.0,   -4.7,   -3.3,   -3.6,   -3.6,   -3.5,   -3.3,   -3.8,   -4.6,   -4.6,   -4.5,   -4.0,   -2.0,   -1.3,   -1.2,   -1.0,   -1.2,   -1.4,   -1.3,   -1.3,   -1.2,   -1.2,   -1.1,   -1.0,   -1.0,   -1.1,   -1.1,   -1.1,   -1.1,   -1.1,   -1.1,   -1.1,   -1.1,   -1.1,   -1.1,   -1.1,   -1.0,   -1.0,   -1.0,   -0.9,   -1.0,   -0.9,   -0.9,   -1.0,   -0.8,   -0.7
2000/06/12 18:30,  999.0,   -4.4,   -4.1,   -4.3,   -4.8,   -4.9,   -4.7,   -4.7,   -4.6,   -4.6,   -5.0,   -4.2,  999.0,  999.0,   -1.6,   -1.3,   -1.4,   -1.5,   -1.3,   -1.3,   -1.3,   -1.2,   -1.2,   -1.3,   -1.2,   -1.2,   -1.2,   -1.1,   -1.1,   -1.1,   -1.0,   -1.0,   -1.0,   -1.1,   -1.1,   -1.0,   -1.0,   -0.9,   -0.9,   -0.9,   -0.9,   -0.8,   -0.8,   -0.7,   -0.8,   -0.6
2000/06/12 18:40,   -5.3,   -5.2,   -5.0,   -5.0,   -4.9,   -4.6,   -4.6,   -4.5,   -4.4,   -4.3,   -4.1,   -3.9,  999.0,   -1.3,   -1.4,   -1.6,   -1.3,   -1.5,   -1.4,   -1.3,   -1.3,   -1.2,   -1.2,   -1.2,   -1.2,   -1.1,   -1.0,   -1.0,   -1.0,   -1.0,   -1.0,   -1.0,   -1.1,   -1.1,   -1.1,   -1.0,   -1.1,   -1.0,   -1.0,   -1.0,   -0.9,   -0.9,   -0.9,   -0.8,   -0.8,   -0.8
2000/06/12 18:50,   -4.4,   -4.5,   -4.6,   -4.5,   -4.5,   -4.6,   -4.6,   -4.5,   -4.5,   -4.2,   -4.2,   -3.4,   -1.8,   -1.4,   -1.5,   -1.5,   -1.3,   -1.4,   -1.3,   -1.2,   -1.2,   -1.2,   -1.0,   -1.1,   -1.1,   -1.0,   -1.1,   -1.1,   -1.1,   -1.1,   -1.1,   -1.1,   -1.1,   -1.1,   -1.1,   -1.1,   -1.0,   -1.0,   -0.9,   -1.0,   -0.9,   -0.8,   -0.8,   -0.7,   -0.7,   -0.7
2000/06/12 19:00,   -3.9,   -4.0,   -3.8,   -3.9,   -3.9,   -3.7,   -3.3,   -3.2,   -3.2,   -3.1,   -2.9,   -2.5,   -1.5,   -1.4,   -1.3,   -1.1,   -1.3,   -1.4,   -1.4,   -1.3,  999.0,  999.0,   -1.2,   -1.1,   -1.0,   -1.1,   -1.2,   -1.2,   -1.1,   -1.1,   -1.0,   -1.0,   -1.1,   -1.0,   -1.0,   -1.0,   -1.0,   -1.0,   -1.0,   -1.1,   -0.9,   -0.8,   -0.8,   -0.8,   -0.8,   -0.8
2000/06/12 19:10,   -3.6,   -3.5,   -3.7,   -3.8,   -4.0,   -4.0,   -3.9,   -3.9,   -4.0,   -4.2,   -4.4,   -2.3,   -1.5,   -1.4,   -1.4,   -1.2,   -1.4,   -1.3,   -1.2,   -1.1,   -1.0,   -1.1,   -1.1,   -1.1,   -1.2,   -1.2,   -1.2,   -1.2,   -1.3,   -1.3,   -1.3,   -1.3,   -1.3,   -1.3,   -1.3,   -1.4,   -1.4,   -1.3,   -1.4,   -1.3,   -1.3,   -1.2,   -1.1,   -1.1,   -1.1,   -1.0
2000/06/12 19:20,   -4.4,   -4.4,   -4.5,   -4.7,   -4.7,   -5.1,   -5.1,   -5.1,   -5.1,   -5.2,   -5.1,  999.0,   -1.9,   -1.3,   -1.1,   -1.2,   -1.4,   -1.0,   -1.1,  999.0,  999.0,   -1.2,   -1.2,   -1.2,   -1.2,  999.0,   -1.2,   -1.1,   -1.0,   -1.1,   -1.2,   -1.2,   -1.2,   -1.2,   -1.3,   -1.3,   -1.3,   -1.3,   -1.2,   -1.2,   -1.1,  999.0,   -1.0,   -1.0,   -1.0,   -0.8
2000/06/12 19:30,   -4.4,   -4.2,   -4.2,   -4.2,   -4.1,   -4.1,   -4.1,   -4.1,   -4.2,   -4.0,   -4.0,  999.0,  999.0,   -1.3,   -1.4,   -1.5,   -1.6,   -1.6,   -1.6,   -1.5,   -1.6,   -1.6,   -1.4,   -1.4,   -1.3,   -1.2,   -1.1,   -1.1,   -1.1,   -1.1,   -1.1,   -1.1,   -1.0,   -1.0,   -1.0,   -1.0,   -1.0,   -1.1,   -1.0,   -1.0,   -0.9,   -0.9,   -0.9,   -0.9,   -0.9,   -0.9
2000/06/12 19:40,   -3.6,   -3.7,   -3.7,   -3.7,   -3.7,   -3.9,   -3.9,   -3.8,   -3.8,   -3.9,   -3.9,   -2.2,   -1.5,   -1.5,   -1.4,   -1.4,   -1.7,   -1.5,   -1.4,   -1.3,   -1.2,   -1.2,   -1.1,   -1.1,   -1.1,   -1.1,   -1.1,   -1.1,   -1.1,   -1.1,   -1.1,   -1.1,   -1.0,   -1.0,   -1.0,   -1.1,   -1.1,   -1.1,   -1.1,   -1.0,   -1.0,   -1.0,   -1.0,   -0.9,   -0.9,   -0.8
2000/06/12 19:50,  999.0,   -4.7,   -4.5,   -4.4,   -4.3,   -4.3,   -4.3,   -4.1,   -4.2,   -4.2,   -4.2,   -2.6,   -1.5,   -1.5,   -1.4,   -1.4,   -1.6,   -1.5,   -1.3,   -1.2,   -1.2,   -1.1,   -1.1,   -1.2,   -1.1,   -1.1,   -1.1,   -0.9,   -1.0,   -1.1,   -1.1,   -1.1,   -1.1,   -1.1,   -1.1,   -1.2,   -1.2,   -1.2,   -1.1,   -1.1,   -1.1,   -1.0,   -1.0,   -0.9,   -0.8,   -0.8
2000/06/12 20:00,   -4.2,   -4.2,   -3.9,   -3.9,   -3.8,   -3.8,   -3.7,   -3.6,   -3.6,   -3.7,   -3.7,   -2.6,   -1.6,   -1.4,   -1.5,   -1.4,   -1.4,   -1.3,   -1.3,   -1.3,   -1.3,   -1.3,   -1.3,   -1.2,   -1.2,   -1.2,   -1.1,   -0.9,   -0.9,   -1.0,   -1.1,   -1.0,   -1.0,   -1.0,   -1.0,   -1.0,   -1.0,   -1.0,   -0.9,   -0.9,   -0.8,   -0.8,   -0.8,   -0.7,   -0.7,   -0.7
2000/06/12 20:10,   -4.6,   -4.5,   -4.4,   -4.3,   -4.2,   -4.3,   -4.2,   -4.1,   -3.8,   -3.8,   -3.5,   -2.4,   -1.5,   -1.3,   -1.2,   -1.2,   -1.2,   -1.2,   -1.3,   -1.3,   -1.2,   -1.2,   -1.2,   -1.3,   -1.2,   -1.0,   -0.9,   -0.9,   -1.0,   -1.0,   -1.1,   -1.0,   -1.0,   -1.0,   -1.0,   -1.0,   -0.9,   -0.9,   -0.9,   -0.8,   -0.8,   -0.8,   -0.7,   -0.7,   -0.7,   -0.7
2000/06/12 20:20,   -4.8,   -4.9,   -5.0,   -4.9,   -4.8,   -4.7,   -5.0,   -5.1,   -5.1,   -5.0,   -4.4,   -3.7,   -2.3,   -1.1,   -0.8,   -0.8,   -1.0,   -1.2,   -1.2,   -1.4,   -1.3,   -1.4,   -1.4,   -1.4,   -1.2,   -1.1,   -1.0,   -1.0,   -1.0,   -1.1,   -1.1,   -1.1,   -1.1,   -1.2,   -1.1,   -1.1,   -1.2,   -1.1,   -1.0,   -1.0,   -1.0,   -1.0,   -0.9,   -0.9,   -0.8,   -0.8
2000/06/12 20:30,   -6.5,   -5.8,   -5.6,  999.0,   -5.5,   -4.9,   -4.7,   -4.8,   -4.3,   -4.2,   -4.1,   -3.7,   -2.3,   -1.6,   -1.6,   -1.7,   -1.5,   -1.5,   -1.4,   -1.5,   -1.5,   -1.5,   -1.5,   -1.4,   -1.3,   -1.2,   -1.2,   -1.1,   -1.1,   -1.1,   -1.1,   -1.1,   -1.0,   -1.1,   -1.0,   -1.0,   -1.1,   -1.0,   -0.9,   -0.9,   -0.9,   -0.8,   -0.8,   -0.8,   -0.7,   -0.6
2000/06/12 20:40,   -4.8,   -4.7,   -4.5,   -4.4,   -4.2,   -4.2,   -4.1,   -4.0,   -3.8,   -3.7,   -4.0,   -3.6,   -2.0,   -1.5,   -1.6,   -1.7,   -1.9,   -1.9,   -1.7,   -2.1,   -1.8,   -1.8,   -1.7,   -1.7,   -1.6,   -1.5,   -1.4,   -1.4,   -1.4,   -1.4,   -1.4,   -1.4,   -1.4,   -1.4,   -1.3,   -1.3,   -1.3,   -1.3,   -1.2,   -1.2,   -1.1,   -1.1,   -1.1,   -0.9,   -0.9,   -0.8
2000/06/12 20:50,   -4.6,   -4.7,   -4.7,   -4.1,   -3.9,   -4.1,   -4.5,   -4.2,   -4.4,   -4.3,   -4.5,   -3.9,   -2.5,   -1.9,   -2.1,   -2.0,   -1.6,   -1.6,   -1.9,   -1.9,   -1.8,   -1.9,   -1.8,   -1.8,   -1.7,   -1.5,   -1.5,   -1.4,   -1.4,   -1.4,   -1.4,   -1.5,   -1.4,   -1.4,   -1.4,   -1.4,   -1.4,   -1.4,   -1.3,   -1.2,   -1.3,   -1.2,   -1.1,   -1.0,   -1.0,   -0.9
2000/06/12 21:00,   -5.7,  999.0,   -5.7,   -4.6,   -4.6,   -5.3,   -4.9,   -4.8,   -4.5,   -4.6,   -4.6,   -3.8,   -2.5,   -2.3,   -2.2,   -1.7,   -1.6,   -1.5,   -1.3,   -1.3,   -1.3,   -1.3,   -1.3,   -1.3,   -1.3,   -1.3,   -1.2,   -1.2,   -1.1,   -1.1,   -1.2,   -1.3,   -1.2,   -1.3,   -1.2,   -1.2,   -1.2,   -1.2,   -1.1,   -1.0,   -1.0,   -1.0,   -0.9,   -0.9,   -0.9,   -0.8
2000/06/12 21:10,   -5.0,   -4.7,   -4.8,   -4.8,   -4.8,   -5.0,   -4.9,   -5.0,   -4.8,   -4.9,   -4.7,   -4.2,   -2.7,   -2.3,   -1.9,   -1.8,   -1.4,   -1.4,   -1.2,   -1.1,   -1.0,   -0.9,   -1.0,   -0.9,   -0.9,   -0.9,   -0.9,   -0.9,   -0.9,   -0.9,   -1.0,   -1.1,   -1.1,   -1.1,   -1.1,   -1.1,   -1.1,   -1.1,   -1.0,   -1.0,   -1.0,   -1.0,   -0.9,   -0.9,   -0.9,   -0.9
2000/06/12 21:20,   -4.6,   -5.2,   -4.1,  999.0,   -3.9,   -3.4,   -3.9,   -3.6,   -4.3,   -4.2,   -3.8,   -3.5,   -2.3,   -1.9,   -2.1,   -1.8,   -1.9,   -1.6,   -1.4,   -1.2,   -1.2,   -1.2,   -1.2,   -1.2,   -1.1,   -1.1,   -1.0,   -1.0,   -1.0,   -1.0,   -1.1,   -1.0,   -1.0,   -1.0,   -1.0,   -1.0,   -1.0,   -1.0,   -1.0,   -1.0,   -1.0,   -1.0,   -0.9,   -1.0,   -0.8,  999.0
2000/06/12 21:30,   -4.4,   -4.6,   -4.4,   -4.3,   -4.3,   -4.3,   -4.2,   -4.0,   -3.7,   -4.0,   -3.9,   -3.1,   -2.1,   -1.7,   -1.6,   -1.7,   -1.7,   -1.8,   -1.5,   -1.6,   -1.6,   -1.6,   -1.5,   -1.5,   -1.4,   -1.3,   -1.2,   -1.2,   -1.2,   -1.2,   -1.2,   -1.2,   -1.2,   -1.2,   -1.2,   -1.1,   -1.1,   -1.1,   -1.2,   -1.1,   -1.1,   -1.0,   -1.0,   -1.0,   -1.0,   -1.0
2000/06/12 21:40,   -5.5,   -6.5,   -6.1,   -5.9,   -5.8,   -5.8,   -5.8,   -5.9,   -5.6,   -5.0,   -4.3,   -3.8,   -3.1,   -2.2,   -1.8,   -2.0,   -2.1,   -1.6,   -1.3,   -1.0,   -0.9,   -0.9,   -1.0,   -1.0,   -1.1,   -1.0,   -1.0,   -0.9,   -0.9,   -1.0,   -1.0,   -1.0,   -1.0,   -1.0,   -1.1,   -1.1,   -1.0,   -1.0,   -1.1,   -1.0,   -1.1,   -1.0,   -0.9,   -0.9,   -0.8,   -0.8
2000/06/12 21:50,   -5.3,   -5.3,   -5.3,   -5.2,   -5.1,   -5.3,   -5.7,   -5.8,   -5.4,   -5.1,   -5.0,   -4.8,   -3.8,   -2.2,   -1.6,   -1.7,   -1.7,   -1.4,   -1.3,   -1.1,   -1.0,   -1.0,   -1.1,   -1.1,   -1.0,   -1.0,   -0.9,   -0.9,   -1.0,   -1.0,   -1.0,   -0.9,   -0.9,   -0.9,   -1.0,   -0.9,   -0.8,   -0.8,   -0.8,   -0.9,   -0.8,   -0.7,   -0.7,   -0.7,   -0.7,   -0.5
2000/06/12 22:00,   -5.2,   -5.1,   -5.3,   -4.9,   -4.8,   -4.8,   -4.9,   -4.8,   -4.5,   -4.4,   -4.4,   -4.4,   -2.8,   -2.0,   -1.6,   -1.2,   -1.1,   -1.3,   -1.3,   -1.3,   -1.3,   -1.4,   -1.4,   -1.3,   -1.2,   -1.1,   -1.0,   -1.0,   -1.0,   -0.9,   -0.8,   -0.7,   -0.8,   -0.8,   -0.8,   -0.8,   -0.7,   -0.8,   -0.9,   -0.8,   -0.7,   -0.6,   -0.6,   -0.6,   -0.5,   -0.5
2000/06/12 22:10,   -5.8,   -6.0,   -5.7,   -5.7,   -6.2,   -6.1,   -5.9,   -6.3,   -5.9,   -5.6,   -5.0,   -4.5,   -2.5,   -1.7,   -1.5,   -1.6,   -1.8,   -1.9,   -1.8,   -1.7,   -1.6,   -1.6,   -1.5,   -1.5,   -1.4,   -1.3,   -1.2,   -1.2,   -1.2,   -1.2,   -1.2,   -1.1,   -1.1,   -1.1,   -1.1,   -1.1,   -1.0,   -1.1,   -1.1,   -1.0,   -1.0,   -0.9,   -0.8,   -0.7,   -0.7,   -0.7
2000/06/12 22:20,   -5.4,   -5.1,   -5.2,   -5.3,   -5.3,   -5.2,   -5.0,   -4.8,   -4.6,   -4.3,   -4.0,   -3.6,   -2.2,   -2.0,   -1.8,   -1.9,   -1.9,   -2.1,   -2.0,   -1.7,   -1.6,   -1.7,   -1.6,   -1.5,   -1.4,   -1.3,   -1.2,   -1.2,   -1.1,   -1.0,   -1.0,   -1.0,   -1.0,   -1.0,   -1.0,   -1.0,   -1.0,   -0.9,   -0.9,   -0.8,   -0.8,   -0.7,   -0.8,   -0.7,   -0.7,  999.0
2000/06/12 22:30,  999.0,   -4.7,   -4.8,   -4.7,   -5.3,   -5.2,   -4.9,   -4.8,   -4.7,   -4.7,   -4.4,   -3.8,   -2.5,   -2.1,   -1.7,   -2.0,   -2.0,   -2.2,   -2.3,   -2.2,   -2.0,   -2.0,   -2.0,   -1.7,   -1.5,   -1.4,   -1.2,   -1.1,   -1.1,   -1.0,   -1.0,   -1.0,   -1.0,   -1.1,   -1.1,   -1.0,   -1.0,   -1.0,   -1.0,   -0.9,   -0.8,   -0.8,   -0.6,   -0.7,   -0.7,   -0.6
2000/06/12 22:40,   -5.0,   -4.9,   -5.1,   -5.3,   -5.3,   -4.9,   -4.7,   -4.5,   -4.6,   -4.6,   -4.7,   -4.1,   -2.6,   -1.9,   -1.6,   -1.7,   -1.7,   -1.7,   -1.6,   -1.5,   -1.5,   -1.5,   -1.4,   -1.3,   -1.2,   -1.1,   -1.0,   -1.0,   -1.0,   -0.9,   -0.9,   -0.9,   -1.0,   -1.0,   -1.0,   -1.0,   -1.0,   -1.0,   -1.0,   -0.9,   -0.8,   -0.8,   -0.8,   -0.7,   -0.7,   -0.8
2000/06/12 22:50,   -5.1,   -5.0,   -4.8,   -4.6,   -4.9,   -4.5,   -4.2,   -4.3,   -4.4,   -4.7,   -4.5,   -3.0,   -2.1,   -1.7,   -1.2,   -1.2,   -1.2,   -1.2,   -1.1,   -1.1,   -1.2,   -1.2,   -1.2,   -1.1,   -1.0,   -0.9,   -0.8,   -0.7,   -0.8,   -0.8,   -0.8,   -0.8,   -0.8,   -0.8,   -0.8,   -0.7,   -0.7,   -0.7,   -0.7,   -0.6,   -0.6,   -0.6,   -0.7,   -0.7,   -0.6,   -0.7
2000/06/12 23:00,   -5.1,   -4.9,   -4.6,   -4.4,   -4.7,   -4.5,   -4.5,   -4.5,   -4.4,   -4.3,   -4.2,   -3.3,   -1.6,   -1.1,   -1.1,   -1.2,   -1.4,   -1.4,   -1.3,   -1.2,   -1.2,   -1.1,   -1.1,   -1.0,   -0.9,   -0.8,   -0.8,   -0.7,   -0.7,   -0.7,   -0.6,   -0.7,   -0.7,   -0.8,   -0.7,   -0.7,   -0.8,   -0.7,   -0.7,   -0.8,   -0.8,   -0.8,   -0.8,   -0.8,   -0.7,   -0.6
2000/06/12 23:10,   -4.6,   -4.4,   -4.3,   -4.5,   -4.8,   -4.6,   -4.5,   -4.5,   -4.4,   -4.4,   -4.2,   -2.8,   -1.3,   -1.1,   -1.1,   -1.3,   -1.3,   -1.5,   -1.5,   -1.4,   -1.4,   -1.3,   -1.3,   -1.3,   -1.2,   -1.0,   -0.9,   -0.8,   -0.7,   -0.6,   -0.5,   -0.4,  999.0,  999.0,  999.0,  999.0,  999.0,  999.0,   -0.6,   -0.7,   -0.8,   -0.7,   -0.7,   -0.7,   -0.6,   -0.7
2000/06/12 23:20,   -3.9,   -4.0,   -4.1,   -4.1,   -3.8,   -3.8,   -3.5,   -3.6,  999.0,   -4.1,   -4.3,   -3.6,   -1.6,   -1.3,   -1.1,   -1.2,   -1.3,   -1.5,   -1.4,   -1.3,   -1.3,   -1.3,   -1.3,   -1.3,   -1.2,   -1.2,   -1.1,   -0.9,   -0.8,   -0.4,   -0.3,   -0.2,  999.0,  999.0,  999.0,  999.0,  999.0,  999.0,  999.0,   -0.6,   -0.8,   -0.8,   -0.8,   -0.9,   -0.8,   -0.9
2000/06/12 23:30,   -3.7,   -3.8,   -3.7,   -3.7,   -3.5,   -3.4,  999.0,   -3.5,   -3.6,   -3.7,   -3.5,   -3.5,   -1.4,   -0.9,   -0.9,   -0.8,   -1.0,   -1.3,   -1.2,   -0.8,   -1.3,   -1.4,   -1.5,   -1.6,   -1.5,   -1.3,   -0.9,   -0.7,   -0.4,   -0.4,   -0.2,   -0.1,  999.0,  999.0,  999.0,  999.0,  999.0,  999.0,  999.0,  999.0,   -0.7,   -0.6,   -0.8,   -0.8,   -0.8,   -0.7
2000/06/12 23:40,   -3.4,   -3.1,   -2.9,   -3.0,   -2.5,   -2.3,   -2.2,   -2.2,  999.0,  999.0,  999.0,   -0.5,   -0.8,   -0.7,   -0.9,   -0.3,    0.2,    0.4,    0.2,  999.0,  999.0,   -1.1,   -0.9,   -0.7,   -0.7,   -0.5,   -0.4,   -0.4,   -0.3,   -0.1,    0.1,  999.0,  999.0,  999.0,  999.0,  999.0,  999.0,  999.0,  999.0,  999.0,  999.0,  999.0,  999.0,   -0.5,   -0.6,   -0.6
2000/06/12 23:50,   -2.6,   -2.4,  999.0,  999.0,   -1.5,   -1.7,   -1.7,   -1.4,   -1.2,   -1.1,   -1.0,   -0.8,  999.0,   -0.3,  999.0,   -0.0,    0.2,    0.1,    0.1,   -0.6,   -1.1,   -0.9,   -0.8,   -0.8,   -0.7,   -0.5,   -0.3,   -0.3,   -0.2,   -0.2,   -0.0,  999.0,  999.0,  999.0,  999.0,  999.0,  999.0,  999.0,  999.0,  999.0,  999.0,  999.0,  999.0,  999.0,  999.0,  999.0
